This is the latest recevied weather packets stored in our database for station/object K1WJY. If no packets are shown the sender has not sent any weather packets the latest 10 day(s).
| Time | Temp. | Humidity | Pressure | Rain* | Wind** | Luminosity | Snow |
|---|---|---|---|---|---|---|---|
| 1777559637 | 6.11° C | 99% | 1013.4 hPa | 0 mm | - | 66 W/m² | - |
| 1777559336 | 6.11° C | 99% | 1013.4 hPa | 1.27 mm | - | 69 W/m² | - |
| 1777559031 | 6.11° C | 99% | 1013.2 hPa | 1.27 mm | - | 71 W/m² | - |
| 1777558727 | 6.11° C | 99% | 1013.4 hPa | 0 mm | - | 90 W/m² | - |
| 1777558423 | 6.11° C | 99% | 1013.5 hPa | 0 mm | - | 87 W/m² | - |
| 1777558119 | 6.11° C | 99% | 1013.5 hPa | 0 mm | - | 91 W/m² | - |
| 1777557816 | 6.11° C | 99% | 1013.4 hPa | 0 mm | - | 136 W/m² | - |
| 1777557513 | 5.56° C | 99% | 1013.4 hPa | 0 mm | - | 90 W/m² | - |
| 1777557209 | 5.56° C | 99% | 1013.6 hPa | 0 mm | - | 77 W/m² | - |
| 1777556905 | 5.56° C | 99% | 1013.7 hPa | 1.78 mm | - | 65 W/m² | - |
| 1777556601 | 5.56° C | 99% | 1013.8 hPa | 1.78 mm | - | 81 W/m² | - |
| 1777556301 | 5.56° C | 99% | 1013.8 hPa | 0 mm | - | 77 W/m² | - |
| 1777555998 | 5.56° C | 99% | 1013.8 hPa | 0 mm | - | 75 W/m² | - |
| 1777555698 | 6.11° C | 99% | 1013.9 hPa | 0 mm | - | 77 W/m² | - |
| 1777555395 | 6.11° C | 99% | 1013.8 hPa | 0 mm | - | 78 W/m² | - |
| 1777555091 | 5.56° C | 99% | 1013.9 hPa | 0 mm | - | 95 W/m² | - |
| 1777554789 | 5.56° C | 99% | 1013.9 hPa | 0 mm | - | 94 W/m² | - |
| 1777554486 | 5.56° C | 99% | 1013.9 hPa | 0 mm | - | 89 W/m² | - |
| 1777554183 | 5.56° C | 99% | 1014 hPa | 0 mm | - | 70 W/m² | - |
| 1777553879 | 5.56° C | 99% | 1013.9 hPa | 0 mm | - | 91 W/m² | - |
| 1777553575 | 5.56° C | 99% | 1014 hPa | 0 mm | - | 72 W/m² | - |
| 1777553271 | 5.56° C | 99% | 1014 hPa | 0 mm | - | 68 W/m² | - |
| 1777552968 | 5.56° C | 99% | 1014.2 hPa | 0 mm | - | 52 W/m² | - |
| 1777552662 | 5.56° C | 99% | 1014.1 hPa | 0 mm | - | 64 W/m² | - |
| 1777552360 | 5.56° C | 99% | 1014 hPa | 0 mm | - | 88 W/m² | - |
* Rain latest hour (hover to see other rain measurements)
** Current wind speed in m/s (hover to see current wind gust speed)